Location: Unspecified
(0.0000°N, 0.0000°E)
Time: 16:16:19
(UTC+00:00)

Tiangong - Pass Details

Date: 16 May 2026
Orbit: 380 x 392 km, 41.5° (Epoch: 11 June)

Event Time Altitude Azimuth Distance (km) Brightness Sun altitude
Rises 19:13:00 0° 248° (WSW) 2,285 2.5 -18.0°
Reaches altitude 10° 19:15:24 10° 264° (W) 1,428 1.7 -18.6°
Maximum altitude 19:17:57 21° 316° (NW) 932 0.5 -19.2°
Drops below altitude 10° 19:20:30 10° 9° (N) 1,425 0.9 -19.8°
Enters shadow 19:22:09 - 22° (NNE) 2,003 1.5 -20.2°
